TimeMST,TemperatureF,Dew PointF,Humidity,Sea Level PressureIn,VisibilityMPH,Wind Direction,Wind SpeedMPH,Gust SpeedMPH,PrecipitationIn,Events,Conditions,WindDirDegrees,DateUTC
12:51 AM,46.9,24.1,41,29.99,10.0,Calm,Calm,-,N/A,,Clear,0,2012-11-30 07:51:00
1:51 AM,41.0,21.9,47,29.99,10.0,Calm,Calm,-,N/A,,Clear,0,2012-11-30 08:51:00
2:51 AM,41.0,21.9,47,30.00,10.0,Calm,Calm,-,N/A,,Clear,0,2012-11-30 09:51:00
3:51 AM,41.0,21.9,47,30.01,10.0,Calm,Calm,-,N/A,,Clear,0,2012-11-30 10:51:00
4:51 AM,39.0,21.9,50,30.02,10.0,SW,4.6,-,N/A,,Clear,230,2012-11-30 11:51:00
5:51 AM,36.0,21.0,55,30.05,10.0,Calm,Calm,-,N/A,,Clear,0,2012-11-30 12:51:00
6:51 AM,36.0,21.0,55,30.06,10.0,SSW,4.6,-,N/A,,Clear,200,2012-11-30 13:51:00
7:51 AM,46.0,25.0,44,30.06,10.0,West,3.5,-,N/A,,Clear,260,2012-11-30 14:51:00
8:51 AM,55.9,27.0,33,30.04,10.0,Calm,Calm,-,N/A,,Clear,0,2012-11-30 15:51:00
9:51 AM,61.0,28.0,29,30.04,10.0,Calm,Calm,-,N/A,,Clear,0,2012-11-30 16:51:00
10:51 AM,66.9,28.0,23,30.01,10.0,Calm,Calm,-,N/A,,Clear,0,2012-11-30 17:51:00
11:51 AM,71.1,28.0,20,29.96,10.0,SE,6.9,-,N/A,,Clear,140,2012-11-30 18:51:00
12:51 PM,73.9,27.0,18,29.92,10.0,Variable,6.9,-,N/A,,Clear,0,2012-11-30 19:51:00
1:51 PM,75.0,27.0,17,29.91,10.0,SE,6.9,-,N/A,,Clear,140,2012-11-30 20:51:00
2:51 PM,75.9,25.0,15,29.88,10.0,SSE,10.4,-,N/A,,Clear,160,2012-11-30 21:51:00
3:51 PM,73.9,26.1,17,29.89,10.0,SSE,11.5,-,N/A,,Clear,160,2012-11-30 22:51:00
4:51 PM,68.0,26.1,21,29.91,10.0,East,4.6,-,N/A,,Clear,100,2012-11-30 23:51:00
5:51 PM,63.0,28.0,27,29.94,10.0,Calm,Calm,-,N/A,,Clear,0,2012-12-01 00:51:00
6:51 PM,60.1,28.0,30,29.95,10.0,Calm,Calm,-,N/A,,Clear,0,2012-12-01 01:51:00
7:51 PM,53.1,25.0,34,29.95,10.0,WNW,5.8,-,N/A,,Clear,290,2012-12-01 02:51:00
8:51 PM,50.0,24.1,36,29.95,10.0,Calm,Calm,-,N/A,,Clear,0,2012-12-01 03:51:00
9:51 PM,52.0,21.0,30,29.94,10.0,North,3.5,-,N/A,,Clear,350,2012-12-01 04:51:00
10:51 PM,46.0,21.9,39,29.95,10.0,Calm,Calm,-,N/A,,Clear,0,2012-12-01 05:51:00
11:51 PM,44.1,24.1,45,29.94,10.0,NE,5.8,-,N/A,,Clear,40,2012-12-01 06:51:00